Location: Cella
(44.7333°N, 10.5667°E)
Time: 17:29:45
(UTC+00:00)

COSMOS 2251 DEB - Pass Details

Date: 03 October 2021
Orbit: 709 x 785 km, 74.1° (Epoch: 25 October)

Event Time Altitude Azimuth Distance (km) Brightness Sun altitude
Rises 20:37:52 0° 345° (NNW) 3,198 ? -38.1°
Reaches altitude 10° 20:40:26 10° 354° (N) 2,257 ? -38.5°
Enters shadow 20:40:56 13° 356° (N) 2,083 ? -38.5°
